Regional Weather Roundup
Issued by NWS

Home | Current Version | Previous Version | Graphics & Text | Print | Product List | Glossary On
Versions: 1 2 3 4 5 6 7 8 9 10 11 12 13 14 15 16 17 18 19 20 21 22 23 24 25 26 27 28 29 30 31 32 33 34 35 36 37 38 39 40 41 42 43 44 45 46 47 48 49 50
000
ASUS43 KBIS 190920
RWRND

NORTH DAKOTA REGIONAL WEATHER ROUNDUP
NATIONAL WEATHER SERVICE BISMARCK ND
300 AM CST FRI DEC 19 2014

NOTE: "FAIR" INDICATES FEW OR NO CLOUDS BELOW 12,000 FEET WITH NO
SIGNIFICANT WEATHER AND/OR OBSTRUCTIONS TO VISIBILITY.


NDZ001>003-009>011-017-191000-
NORTHWEST NORTH DAKOTA

CITY           SKY/WX    TMP DP  RH WIND       PRES   REMARKS
WILLISTON      FOG       25  24  96 CALM      29.92S VSB 1/4
MINOT          CLOUDY    26  24  92 SE3       29.95R FOG
MINOT AFB      FRZ DRZL  25  25 100 SE6       29.95R FOG     WCI  18
$$

NDZ018>021-031>035-040>046-191000-
SOUTHWEST NORTH DAKOTA

CITY           SKY/WX    TMP DP  RH WIND       PRES   REMARKS
BISMARCK       CLEAR     18  15  88 SE5       29.98S WCI  11
DICKINSON      CLOUDY    30  25  81 SW9       29.89S
GARRISON         N/A     24  23  96 SE6       29.93S WCI  17
HETTINGER ARPT MOCLDY    26  22  84 CALM      29.95R
$$

NDZ004>008-012>016-024-026-027-054-191000-
NORTHEAST NORTH DAKOTA

CITY           SKY/WX    TMP DP  RH WIND       PRES   REMARKS
GRAND FORKS    CLOUDY    21  18  88 S14       30.11S WCI   8
GRND FRKS AFB  CLOUDY    21  21  99 S13       30.10S WCI   9
DEVILS LAKE    CLOUDY    25  18  74 S10       29.99F WCI  15
$$

NDZ022-023-025-028>030-036>039-047>053-191000-
SOUTHEAST NORTH DAKOTA

CITY           SKY/WX    TMP DP  RH WIND       PRES   REMARKS
FARGO          CLOUDY    23  19  85 SE14      30.14S WCI  11
JAMESTOWN      CLOUDY    25  24  96 S8        30.03S FOG     WCI  16
$$



USA.gov is the U.S. government's official web portal to all federal, state and local government web resources and services.